FW9423 Weather Reports


Display with metric or nautical units.
time (UTC)temp
F
wind
direction
speed
MPH
gust
MPH
rain 1hr
in
rain 24hr
in
rain mn
in
humidity
%
barometer
mb
20260509065541 68 360 5.0 11.0 0.00 0.00 0.00 42 1027.5
20260509065041 68 360 5.0 12.0 0.00 0.00 0.00 42 1027.4
20260509064546 68 360 5.0 12.0 0.00 0.00 0.00 43 1027.4
20260509064045 68 360 6.0 12.0 0.00 0.00 0.00 43 1027.4
20260509063540 68 360 6.0 12.0 0.00 0.00 0.00 43 1027.4
20260509063055 68 360 4.0 11.0 0.00 0.00 0.00 42 1027.4
20260509062541 68 360 6.0 12.0 0.00 0.00 0.00 43 1027.4
20260509062043 68 360 6.0 12.0 0.00 0.00 0.00 43 1027.5
20260509061552 68 360 6.0 12.0 0.00 0.00 0.00 43 1027.5
20260509061042 68 360 6.0 12.0 0.00 0.00 0.00 43 1027.4
20260509060543 68 360 5.0 12.0 0.00 0.00 0.00 43 1027.6
20260509060052 68 360 5.0 12.0 0.00 0.00 0.00 43 1027.6
20260509055543 68 360 5.0 12.0 0.00 0.00 0.00 42 1027.6
20260509055041 68 360 6.0 16.0 0.00 0.00 0.00 43 1027.6
20260509054600 68 360 7.0 16.0 0.00 0.00 0.00 42 1027.6
20260509054041 68 360 3.0 11.0 0.00 0.00 0.00 44 1027.7
20260509053542 68 360 3.0 13.0 0.00 0.00 0.00 44 1027.7
20260509053125 68 360 6.0 13.0 0.00 0.00 0.00 43 1027.8
20260509052542 68 360 7.0 12.0 0.00 0.00 0.00 43 1027.9
20260509052045 68 360 4.0 12.0 0.00 0.00 0.00 44 1027.8
20260509051607 68 360 4.0 12.0 0.00 0.00 0.00 44 1027.8
20260509051041 68 360 3.0 12.0 0.00 0.00 0.00 45 1027.8
20260509050541 67 360 5.0 12.0 0.00 0.00 0.00 45 1027.9
20260509050105 67 360 4.0 11.0 0.00 0.00 0.00 45 1027.9
20260509045541 67 360 6.0 11.0 0.00 0.00 0.00 45 1027.9
20260509045041 67 360 3.0 11.0 0.00 0.00 0.00 45 1028.0
20260509044550 67 360 5.0 11.0 0.00 0.00 0.00 45 1028.1
20260509044043 67 360 6.0 11.0 0.00 0.00 0.00 46 1028.2
20260509043540 66 360 5.0 11.0 0.00 0.00 0.00 47 1028.3
20260509043053 66 360 4.0 11.0 0.00 0.00 0.00 48 1028.4
20260509042541 66 360 4.0 11.0 0.00 0.00 0.00 48 1028.4
20260509042041 66 360 4.0 12.0 0.00 0.00 0.00 47 1028.4
20260509041555 66 360 6.0 12.0 0.00 0.00 0.00 48 1028.6
20260509041043 66 360 2.0 13.0 0.00 0.00 0.00 48 1028.7
20260509040541 66 360 4.0 13.0 0.00 0.00 0.00 48 1028.9
20260509040053 66 360 7.0 13.0 0.00 0.00 0.00 48 1028.9
20260509035544 66 360 5.0 12.0 0.00 0.00 0.00 49 1029.1
20260509035043 66 360 6.0 11.0 0.00 0.00 0.00 49 1029.2
20260509034550 66 360 5.0 11.0 0.00 0.00 0.00 50 1029.2
20260509034041 66 360 6.0 11.0 0.00 0.00 0.00 50 1029.5
20260509033542 65 360 6.0 11.0 0.00 0.00 0.00 50 1029.6
20260509033100 65 360 4.0 13.0 0.00 0.00 0.00 51 1029.6
20260509032543 65 360 5.0 13.0 0.00 0.00 0.00 51 1029.9
20260509032040 65 360 6.0 11.0 0.00 0.00 0.00 50 1030.0
20260509031555 65 360 4.0 10.0 0.00 0.00 0.00 52 1030.1
20260509031039 64 360 4.0 10.0 0.00 0.00 0.00 52 1030.2
20260509030543 64 360 4.0 10.0 0.00 0.00 0.00 52 1030.2
20260509030052 64 360 4.0 10.0 0.00 0.00 0.00 54 1030.5
20260509025543 64 360 4.0 12.0 0.00 0.00 0.00 54 1030.6
20260509025045 64 360 7.0 12.0 0.00 0.00 0.00 55 1030.6
20260509024553 63 360 5.0 11.0 0.00 0.00 0.00 55 1030.8
20260509024041 62 360 6.0 13.0 0.00 0.00 0.00 56 1031.0
20260509023542 63 360 5.0 13.0 0.00 0.00 0.00 55 1030.9
20260509023053 63 360 6.0 11.0 0.00 0.00 0.00 56 1031.0
20260509022546 63 360 5.0 11.0 0.00 0.00 0.00 57 1031.1
20260509022043 63 360 6.0 10.0 0.00 0.00 0.00 57 1031.2
20260509021554 63 360 5.0 12.0 0.00 0.00 0.00 58 1031.3
20260509021045 63 360 7.0 12.0 0.00 0.00 0.00 57 1031.4
20260509020539 63 360 5.0 12.0 0.00 0.00 0.00 58 1031.4
20260509020053 63 360 6.0 12.0 0.00 0.00 0.00 58 1031.6
20260509015543 63 360 5.0 11.0 0.00 0.00 0.00 58 1031.6
20260509015044 62 360 4.0 12.0 0.00 0.00 0.00 60 1031.6
20260509014551 62 360 7.0 13.0 0.00 0.00 0.00 61 1031.7
20260509014039 61 360 5.0 14.0 0.00 0.00 0.00 61 1031.7
20260509013544 61 360 7.0 14.0 0.00 0.00 0.00 62 1031.8
20260509013057 61 360 8.0 14.0 0.00 0.00 0.00 62 1031.9
20260509012540 61 360 7.0 15.0 0.00 0.00 0.00 62 1031.9
20260509012041 60 360 8.0 15.0 0.00 0.00 0.00 63 1031.9
20260509011557 60 360 8.0 13.0 0.00 0.00 0.00 63 1032.0
20260509011042 61 360 7.0 14.0 0.00 0.00 0.00 63 1032.0
20260509010545 60 360 6.0 15.0 0.00 0.00 0.00 64 1032.0
20260509010054 60 360 8.0 15.0 0.00 0.00 0.00 65 1032.0
20260509005543 60 360 7.0 15.0 0.00 0.00 0.00 65 1032.1
20260509005041 59 360 8.0 15.0 0.00 0.00 0.00 66 1032.1
20260509004549 59 360 6.0 14.0 0.00 0.00 0.00 66 1032.2
20260509004045 59 360 8.0 14.0 0.00 0.00 0.00 67 1032.1
20260509003543 59 360 7.0 13.0 0.00 0.00 0.00 67 1032.2
20260509003049 58 360 8.0 13.0 0.00 0.00 0.00 68 1032.3
20260509002542 58 360 7.0 15.0 0.00 0.00 0.00 69 1032.3
20260509002039 58 360 6.0 15.0 0.00 0.00 0.00 69 1032.5
20260509001548 57 360 8.0 15.0 0.00 0.00 0.00 70 1032.4
20260509001040 57 360 8.0 15.0 0.00 0.00 0.00 70 1032.4
20260509000548 57 360 9.0 13.0 0.00 0.00 0.00 71 1032.4
20260509000052 56 360 7.0 13.0 0.00 0.00 0.00 72 1032.4
20260508235542 56 360 7.0 13.0 0.00 0.00 0.00 72 1032.4
20260508235043 56 360 7.0 13.0 0.00 0.00 0.00 73 1032.3
20260508234550 56 360 6.0 13.0 0.00 0.00 0.00 74 1032.2
20260508234043 55 360 7.0 13.0 0.00 0.00 0.00 75 1032.2
20260508233541 55 360 5.0 11.0 0.00 0.00 0.00 76 1032.2
20260508233101 54 360 5.0 10.0 0.00 0.00 0.00 77 1032.0
20260508232540 54 360 5.0 10.0 0.00 0.00 0.00 78 1032.0
20260508232041 54 360 3.0 8.0 0.00 0.00 0.00 79 1032.0
20260508231551 53 360 3.0 8.0 0.00 0.00 0.00 80 1031.9
20260508231044 53 360 4.0 8.0 0.00 0.00 0.00 81 1031.8
20260508230544 52 360 4.0 8.0 0.00 0.00 0.00 82 1031.8
20260508230054 52 360 3.0 6.0 0.00 0.00 0.00 82 1031.7
20260508225542 51 360 3.0 6.0 0.00 0.00 0.00 83 1031.7
20260508225044 51 360 2.0 5.0 0.00 0.00 0.00 84 1031.6
20260508224610 50 360 2.0 5.0 0.00 0.00 0.00 84 1031.6
20260508224040 50 360 2.0 6.0 0.00 0.00 0.00 85 1031.5
20260508223544 50 360 2.0 6.0 0.00 0.00 0.00 85 1031.5
20260508223052 49 360 2.0 5.0 0.00 0.00 0.00 85 1031.4
20260508222540 49 360 2.0 5.0 0.00 0.00 0.00 85 1031.4
20260508222040 49 360 2.0 5.0 0.00 0.00 0.00 85 1031.3
20260508221553 49 360 3.0 5.0 0.00 0.00 0.00 85 1031.3
20260508221041 49 360 2.0 5.0 0.00 0.00 0.00 85 1031.2
20260508220541 49 360 2.0 5.0 0.00 0.00 0.00 84 1031.3
20260508220055 49 360 3.0 5.0 0.00 0.00 0.00 84 1031.1
20260508215542 49 360 3.0 5.0 0.00 0.00 0.00 84 1031.1
20260508215041 49 360 3.0 5.0 0.00 0.00 0.00 84 1031.1
20260508214553 49 360 3.0 5.0 0.00 0.00 0.00 84 1031.1
20260508214047 49 360 2.0 5.0 0.00 0.00 0.00 84 1031.1
20260508213543 49 360 2.0 6.0 0.00 0.00 0.00 84 1030.9
20260508213052 50 360 3.0 6.0 0.00 0.00 0.00 84 1031.0
20260508212544 50 360 3.0 6.0 0.00 0.00 0.00 83 1030.9
20260508212040 50 360 3.0 5.0 0.00 0.00 0.00 84 1030.9
20260508211556 50 360 2.0 5.0 0.00 0.00 0.00 84 1030.9
20260508211040 50 360 3.0 5.0 0.00 0.00 0.00 84 1030.9
20260508210543 50 360 2.0 5.0 0.00 0.00 0.00 83 1030.8
20260508210053 49 360 3.0 5.0 0.00 0.00 0.00 83 1030.8
20260508205543 49 360 2.0 5.0 0.00 0.00 0.00 84 1030.8
20260508205046 49 360 2.0 5.0 0.00 0.00 0.00 84 1030.8
20260508204556 49 360 3.0 5.0 0.00 0.00 0.00 83 1030.7
20260508204039 49 360 2.0 4.0 0.00 0.00 0.00 83 1030.7
20260508203540 49 360 2.0 4.0 0.00 0.00 0.00 83 1030.6
20260508203055 49 360 2.0 3.0 0.00 0.00 0.00 82 1030.6
20260508202541 49 360 1.0 3.0 0.00 0.00 0.00 82 1030.7
20260508202040 49 360 1.0 3.0 0.00 0.00 0.00 82 1030.6
20260508201547 50 360 1.0 3.0 0.00 0.00 0.00 82 1030.5
20260508201040 50 360 2.0 3.0 0.00 0.00 0.00 82 1030.5
20260508200540 50 360 2.0 3.0 0.00 0.00 0.00 81 1030.5
20260508200105 50 360 1.0 3.0 0.00 0.00 0.00 81 1030.5
20260508195540 50 360 2.0 4.0 0.00 0.00 0.00 81 1030.5
20260508195043 50 360 1.0 4.0 0.00 0.00 0.00 80 1030.5
20260508194602 51 360 2.0 4.0 0.00 0.00 0.00 80 1030.3
20260508194044 51 360 1.0 4.0 0.00 0.00 0.00 80 1030.3
20260508193540 51 360 2.0 5.0 0.00 0.00 0.00 80 1030.3
20260508193104 51 360 2.0 5.0 0.00 0.00 0.00 80 1030.3
20260508192540 51 360 2.0 4.0 0.00 0.00 0.00 80 1030.3
20260508192041 51 360 2.0 4.0 0.00 0.00 0.00 80 1030.3
20260508191554 51 360 2.0 5.0 0.00 0.00 0.00 80 1030.3
20260508191039 51 360 2.0 5.0 0.00 0.00 0.00 79 1030.3
20260508190545 51 360 3.0 5.0 0.00 0.00 0.00 80 1030.3
20260508190054 51 360 2.0 5.0 0.00 0.00 0.00 80 1030.3
20260508185542 51 360 2.0 4.0 0.00 0.00 0.00 79 1030.5
20260508185044 51 360 2.0 3.0 0.00 0.00 0.00 79 1030.5
20260508184555 51 360 1.0 3.0 0.00 0.00 0.00 79 1030.5
20260508184039 51 360 1.0 3.0 0.00 0.00 0.00 78 1030.5
20260508183543 52 0 1.0 3.0 0.00 0.00 0.00 78 1030.5
20260508183053 52 360 1.0 3.0 0.00 0.00 0.00 78 1030.4
20260508182545 52 360 1.0 3.0 0.00 0.00 0.00 77 1030.3
20260508182043 52 360 1.0 3.0 0.00 0.00 0.00 77 1030.4
20260508181556 53 360 1.0 4.0 0.00 0.00 0.00 77 1030.3
20260508181041 53 360 2.0 4.0 0.00 0.00 0.00 76 1030.4
20260508180545 53 360 2.0 5.0 0.00 0.00 0.00 76 1030.3
20260508180058 53 360 2.0 5.0 0.00 0.00 0.00 76 1030.4
20260508175540 54 360 2.0 5.0 0.00 0.00 0.00 75 1030.4
20260508175044 54 360 2.0 6.0 0.00 0.00 0.00 75 1030.4
20260508174603 54 360 2.0 6.0 0.00 0.00 0.00 75 1030.4
20260508174042 54 360 3.0 5.0 0.00 0.00 0.00 75 1030.4
20260508173541 54 360 2.0 8.0 0.00 0.00 0.00 75 1030.4
20260508173050 55 360 3.0 8.0 0.00 0.00 0.00 75 1030.5
20260508172539 55 360 3.0 8.0 0.00 0.00 0.00 75 1030.6
20260508172039 55 360 4.0 8.0 0.00 0.00 0.00 75 1030.5
20260508171550 54 360 3.0 6.0 0.00 0.00 0.00 76 1030.5
20260508171044 54 360 2.0 4.0 0.00 0.00 0.00 75 1030.6
20260508170540 55 360 2.0 5.0 0.00 0.00 0.00 75 1030.5
20260508170052 55 360 3.0 8.0 0.00 0.00 0.00 75 1030.6
20260508165539 55 360 2.0 8.0 0.00 0.00 0.00 75 1030.5
20260508165042 55 360 2.0 6.0 0.00 0.00 0.00 75 1030.5
20260508164554 54 360 3.0 6.0 0.00 0.00 0.00 74 1030.5
20260508164041 54 360 2.0 5.0 0.00 0.00 0.00 74 1030.5
20260508163540 54 360 2.0 4.0 0.00 0.00 0.00 73 1030.5
20260508163053 54 360 2.0 4.0 0.00 0.00 0.00 72 1030.6
20260508162541 54 360 1.0 4.0 0.00 0.00 0.00 71 1030.6
20260508162041 54 360 2.0 4.0 0.00 0.00 0.00 71 1030.6
20260508161551 54 360 2.0 4.0 0.00 0.00 0.00 70 1030.6
20260508161045 54 360 1.0 4.0 0.00 0.00 0.00 69 1030.5
20260508160544 54 360 2.0 4.0 0.00 0.00 0.00 69 1030.6
20260508160053 54 360 1.0 4.0 0.00 0.00 0.00 68 1030.5
20260508155542 55 360 2.0 4.0 0.00 0.00 0.00 68 1030.5
20260508155043 55 360 2.0 5.0 0.00 0.00 0.00 68 1030.6
20260508154553 55 360 2.0 5.0 0.00 0.00 0.00 67 1030.6
20260508154040 55 360 3.0 5.0 0.00 0.00 0.00 67 1030.5
20260508153543 55 360 2.0 4.0 0.00 0.00 0.00 66 1030.6
20260508153053 55 360 2.0 4.0 0.00 0.00 0.00 65 1030.6
20260508152540 55 360 2.0 4.0 0.00 0.00 0.00 65 1030.6
20260508152040 55 360 2.0 4.0 0.00 0.00 0.00 65 1030.5
20260508151554 55 360 1.0 5.0 0.00 0.00 0.00 64 1030.6
20260508151045 55 360 2.0 6.0 0.00 0.00 0.00 64 1030.6
20260508150543 55 360 2.0 6.0 0.00 0.00 0.00 64 1030.6
20260508150046 55 360 2.0 6.0 0.00 0.00 0.00 65 1030.7
20260508145543 55 360 2.0 4.0 0.00 0.00 0.00 65 1030.7
20260508145042 55 360 2.0 4.0 0.00 0.00 0.00 65 1030.8
20260508144552 55 360 2.0 4.0 0.00 0.00 0.00 65 1030.7
20260508144043 55 360 1.0 4.0 0.00 0.00 0.00 65 1030.7
20260508143543 55 360 2.0 4.0 0.00 0.00 0.00 65 1030.7
20260508143058 55 360 2.0 4.0 0.00 0.00 0.00 65 1030.8
20260508142542 55 360 2.0 4.0 0.00 0.00 0.00 65 1030.9
20260508142043 55 360 2.0 4.0 0.00 0.00 0.00 65 1030.8
20260508141626 55 360 1.0 4.0 0.00 0.00 0.00 65 1031.0
20260508141041 55 360 2.0 4.0 0.00 0.00 0.00 64 1030.9
20260508140540 55 360 2.0 5.0 0.00 0.00 0.00 64 1031.0
20260508140059 56 360 2.0 5.0 0.00 0.00 0.00 64 1031.0
20260508135545 56 360 2.0 5.0 0.00 0.00 0.00 63 1031.0
20260508135045 56 360 3.0 5.0 0.00 0.00 0.00 63 1031.1
20260508134627 56 360 3.0 5.0 0.00 0.00 0.00 63 1031.1
20260508134040 56 360 3.0 8.0 0.00 0.00 0.00 63 1031.1
20260508133543 56 360 2.0 8.0 0.00 0.00 0.00 62 1031.1
20260508133058 57 360 3.0 8.0 0.00 0.00 0.00 62 1031.1
20260508132540 57 360 3.0 8.0 0.00 0.00 0.00 62 1031.2
20260508132042 57 360 4.0 8.0 0.00 0.00 0.00 62 1031.2
20260508131559 57 360 4.0 8.0 0.00 0.00 0.00 62 1031.2
20260508131044 57 360 4.0 8.0 0.00 0.00 0.00 62 1031.0
20260508130539 57 360 4.0 8.0 0.00 0.00 0.00 62 1031.1
20260508130105 57 360 4.0 8.0 0.00 0.00 0.00 61 1031.1
20260508125541 57 360 3.0 8.0 0.00 0.00 0.00 61 1031.1
20260508125040 57 360 3.0 8.0 0.00 0.00 0.00 61 1031.1
20260508124557 58 360 4.0 8.0 0.00 0.00 0.00 61 1031.1
20260508124046 58 360 4.0 9.0 0.00 0.00 0.00 60 1031.1
20260508123540 58 360 4.0 10.0 0.00 0.00 0.00 60 1031.0
20260508123133 58 360 5.0 10.0 0.00 0.00 0.00 60 1030.9
20260508122540 58 360 5.0 10.0 0.00 0.00 0.00 60 1030.8
20260508122040 58 360 5.0 10.0 0.00 0.00 0.00 59 1030.8
20260508121557 58 360 5.0 10.0 0.00 0.00 0.00 59 1030.8
20260508121043 58 360 5.0 9.0 0.00 0.00 0.00 59 1030.8
20260508120543 58 360 5.0 9.0 0.00 0.00 0.00 58 1030.9
20260508120100 58 360 5.0 10.0 0.00 0.00 0.00 58 1030.9
20260508115542 58 360 4.0 10.0 0.00 0.00 0.00 57 1030.8
20260508115043 59 360 4.0 9.0 0.00 0.00 0.00 57 1030.8
20260508114556 59 360 4.0 9.0 0.00 0.00 0.00 57 1030.8
20260508114043 59 360 4.0 9.0 0.00 0.00 0.00 56 1030.8
20260508113540 59 360 5.0 11.0 0.00 0.00 0.00 56 1030.8
20260508113107 59 360 4.0 11.0 0.00 0.00 0.00 55 1030.7
20260508112543 59 360 4.0 9.0 0.00 0.00 0.00 55 1030.8
20260508112041 59 360 5.0 10.0 0.00 0.00 0.00 55 1030.7
20260508111552 59 360 5.0 10.0 0.00 0.00 0.00 55 1030.7
20260508111043 60 360 5.0 10.0 0.00 0.00 0.00 54 1030.8
20260508110543 60 360 5.0 10.0 0.00 0.00 0.00 54 1030.7
20260508110057 60 360 5.0 9.0 0.00 0.00 0.00 54 1030.7
20260508105544 60 360 4.0 10.0 0.00 0.00 0.00 54 1030.7
20260508105044 60 360 4.0 10.0 0.00 0.00 0.00 53 1030.7
20260508104555 60 360 5.0 12.0 0.00 0.00 0.00 53 1030.7
20260508104045 60 360 5.0 12.0 0.00 0.00 0.00 53 1030.7
20260508103704 60 360 6.0 12.0 0.00 0.00 0.00 53 1030.6
20260508103052 61 360 5.0 13.0 0.00 0.00 0.00 53 1030.5
20260508102539 61 360 6.0 13.0 0.00 0.00 0.00 52 1030.5
20260508102046 61 360 6.0 13.0 0.00 0.00 0.00 52 1030.5
20260508101548 61 360 6.0 13.0 0.00 0.00 0.00 52 1030.4
20260508101044 61 360 5.0 16.0 0.00 0.00 0.00 52 1030.3
20260508100542 61 360 7.0 16.0 0.00 0.00 0.00 51 1030.3
20260508100048 61 360 7.0 13.0 0.00 0.00 0.00 51 1030.3
20260508095543 62 360 7.0 13.0 0.00 0.00 0.00 51 1030.3
20260508095046 62 360 7.0 13.0 0.00 0.00 0.00 51 1030.3
20260508094551 62 360 8.0 13.0 0.00 0.00 0.00 51 1030.2
20260508094042 62 360 8.0 13.0 0.00 0.00 0.00 50 1030.2
20260508093542 62 360 9.0 13.0 0.00 0.00 0.00 50 1030.3
20260508093054 63 360 7.0 13.0 0.00 0.00 0.00 49 1030.2
20260508092544 63 360 5.0 12.0 0.00 0.00 0.00 46 1030.2
20260508092043 63 360 7.0 12.0 0.00 0.00 0.00 45 1030.1
20260508091557 63 360 5.0 12.0 0.00 0.00 0.00 45 1030.0
20260508091042 64 360 5.0 15.0 0.00 0.00 0.00 44 1030.1
20260508090545 64 360 7.0 15.0 0.00 0.00 0.00 44 1030.0
20260508090105 64 360 7.0 15.0 0.00 0.00 0.00 44 1030.0
20260508085541 64 360 5.0 13.0 0.00 0.00 0.00 43 1029.9
20260508085041 64 360 8.0 13.0 0.00 0.00 0.00 43 1029.8
20260508084550 64 360 6.0 12.0 0.00 0.00 0.00 42 1029.9
20260508084044 64 360 7.0 12.0 0.00 0.00 0.00 42 1029.8
20260508083543 65 360 6.0 12.0 0.00 0.00 0.00 41 1029.8
20260508083047 65 360 7.0 15.0 0.00 0.00 0.00 41 1029.8
20260508082542 65 360 8.0 15.0 0.00 0.00 0.00 40 1029.7
20260508082042 65 360 8.0 15.0 0.00 0.00 0.00 40 1029.8
20260508081600 65 360 8.0 15.0 0.00 0.00 0.00 39 1029.8
20260508081042 66 360 8.0 15.0 0.00 0.00 0.00 39 1029.8
20260508080543 66 360 7.0 13.0 0.00 0.00 0.00 39 1029.8
20260508080335 66 360 8.0 14.0 0.00 0.00 0.00 39 1029.8
20260508075542 66 360 8.0 14.0 0.00 0.00 0.00 39 1029.8
20260508075041 66 360 8.0 15.0 0.00 0.00 0.00 39 1029.8
20260508074551 66 360 9.0 15.0 0.00 0.00 0.00 39 1029.8
20260508074046 66 360 9.0 16.0 0.00 0.00 0.00 39 1029.8
20260508073542 67 360 9.0 16.0 0.00 0.00 0.00 39 1029.9
20260508073107 67 360 9.0 17.0 0.00 0.00 0.00 38 1029.8
20260508072541 67 360 8.0 17.0 0.00 0.00 0.00 38 1029.9
20260508072040 67 360 7.0 15.0 0.00 0.00 0.00 39 1029.8
20260508071622 67 360 8.0 15.0 0.00 0.00 0.00 39 1029.8
20260508071042 67 360 8.0 15.0 0.00 0.00 0.00 39 1029.9
20260508070541 67 360 7.0 15.0 0.00 0.00 0.00 39 1029.8